Wind_Speed
17 17 16 14 12 10 9 8 8 8 8 8 8 8 9 9 9 10 9 8 8 9 10 10 9 9 10 10 10 9 9 9 10 11 11 9 8 8 7 8 14 18 19 19 19 19 19 19 19 17 15 13 10 9 8 7 6 9 11 10 10 10 9 8 6 4 5 7 13 16 14 15 16 17 17 14 14 13 16 19 17 21 19 14 15 18 26 26
17 17 17 16 14 12 10 9 8 8 8 8 8 8 9 10 10 10 10 9 8 8 10 9 9 9 9 10 10 9 9 9 10 12 11 11 10 9 7 8 12 16 18 18 17 17 17 18 19 17 15 14 11 9 9 9 7 8 9 10 10 10 10 9 6 4 5 7 10 13 13 15 15 15 15 13 15 15 16 20 19 21 19 16 18 23 27 25
17 17 17 16 15 14 12 11 10 9 9 9 9 10 10 11 11 11 10 9 9 9 9 8 9 9 9 10 9 9 9 9 10 12 12 12 12 10 8 9 11 14 17 18 17 18 18 19 19 18 17 15 13 10 11 12 9 9 9 10 10 9 10 10 9 6 6 7 7 9 13 15 15 16 14 13 15 15 16 16 16 19 20 19 21 27 27 25
17 18 17 16 16 15 14 13 12 12 11 11 11 11 12 12 13 12 11 10 9 9 9 8 8 9 9 9 9 9 9 10 10 12 13 13 13 11 10 10 11 14 17 19 20 21 22 22 21 19 18 17 15 14 15 14 10 10 10 9 8 8 8 9 10 6 6 5 5 9 13 14 16 17 14 14 15 15 14 11 9 13 18 18 21 27 26 24
17 18 17 17 16 16 15 15 15 14 14 14 13 13 13 14 14 13 12 10 10 10 9 7 7 7 8 9 9 9 10 9 10 12 13 14 14 13 12 12 11 13 17 19 21 23 23 23 23 23 21 19 17 16 15 13 10 11 10 6 5 6 5 5 8 6 4 4 6 8 11 13 16 17 14 13 12 9 9 8 6 10 14 14 19 24 24 24
17 17 17 17 16 16 16 15 15 16 16 16 16 15 15 15 15 14 12 10 10 10 9 7 6 6 8 9 9 9 10 9 10 13 13 14 15 14 14 14 12 12 16 19 21 22 22 23 24 25 24 20 17 16 15 13 10 8 7 5 5 4 3 3 2 4 3 3 5 7 9 11 13 15 14 11 9 7 7 6 6 10 13 13 17 20 20 22
16 16 17 16 16 16 16 15 15 15 16 17 17 16 15 15 15 14 12 10 10 9 8 7 6 6 7 9 9 9 11 10 11 13 13 13 15 16 16 15 13 12 14 18 20 20 21 23 24 24 24 21 18 16 14 13 10 6 6 5 6 5 5 4 4 2 1 3 5 6 8 9 10 12 13 11 12 12 10 8 8 11 14 15 17 18 18 19
15 15 16 16 16 16 15 14 14 14 14 15 16 15 15 14 14 13 11 10 10 9 8 7 6 6 7 9 9 9 10 10 11 12 12 14 15 16 16 15 14 12 13 16 18 19 20 22 23 24 24 21 19 17 14 10 8 6 3 4 6 6 8 7 7 7 2 4 6 7 8 9 9 11 12 12 14 14 12 11 11 13 15 16 17 18 19 19
14 14 15 15 16 16 15 15 14 13 13 13 13 14 13 12 13 12 10 10 10 9 7 6 6 6 7 8 8 8 9 11 12 11 11 13 15 17 16 16 15 13 13 14 17 18 18 20 21 22 22 20 20 18 14 10 8 5 3 6 5 5 8 7 9 11 5 4 7 8 8 10 10 12 14 14 14 14 13 14 12 12 14 15 16 18 19 19
15 15 15 15 16 16 16 15 14 14 13 12 12 12 12 11 11 11 10 9 10 9 6 6 6 6 7 8 8 8 10 13 14 13 12 12 14 15 16 16 16 16 15 14 15 16 16 18 18 20 22 21 21 18 13 11 8 6 7 6 4 6 6 5 11 14 8 5 7 6 6 9 11 14 16 16 15 15 15 15 12 12 12 13 15 18 20 20
16 16 16 16 16 16 16 15 15 14 13 13 13 12 11 10 9 10 10 9 9 8 6 6 6 6 7 8 7 8 10 13 14 14 15 14 13 14 15 16 16 16 15 13 13 13 16 20 18 20 22 21 20 17 14 11 9 9 9 7 5 7 5 6 12 15 11 8 8 7 6 8 11 13 15 16 16 15 15 15 14 13 11 12 15 17 20 22
16 16 16 16 16 16 16 15 14 13 13 13 13 13 12 11 10 11 10 8 8 7 5 6 5 6 7 7 7 8 10 11 12 13 15 16 15 15 15 16 17 17 15 12 12 14 18 21 21 21 20 20 19 16 13 12 12 11 8 8 7 7 6 5 10 14 13 11 8 9 9 9 9 10 13 16 15 14 14 15 16 15 12 13 16 18 21 22
16 16 15 15 15 16 16 15 14 13 12 12 13 13 13 12 10 10 9 8 7 5 5 5 5 5 6 6 6 6 8 9 12 13 13 14 16 16 15 16 17 18 16 14 15 18 20 22 23 22 19 20 18 13 12 13 14 12 9 10 8 7 7 6 9 14 15 15 10 7 8 9 8 9 13 15 16 16 16 17 17 16 15 15 17 20 21 22
17 16 15 15 15 15 15 15 14 12 11 11 11 12 13 11 9 10 9 8 6 5 6 6 5 6 6 5 4 4 5 7 11 13 12 13 15 15 16 16 16 18 18 18 20 22 23 22 23 24 22 20 17 14 13 14 14 13 11 11 9 7 6 8 11 14 18 18 13 9 9 8 6 8 12 14 16 18 17 17 18 18 17 17 18 21 22 22
17 16 15 15 15 15 14 14 13 12 11 10 10 11 10 9 9 9 8 8 6 5 6 7 7 7 8 7 6 5 5 5 8 10 11 13 15 15 17 18 17 18 20 22 25 26 24 22 24 25 23 19 18 16 14 14 14 12 10 9 11 10 5 8 13 13 17 17 15 12 10 9 9 9 12 13 16 18 16 16 18 19 18 18 18 21 23 22
16 16 16 15 15 15 14 14 13 12 10 9 10 10 8 8 9 8 8 8 6 5 7 8 9 9 10 10 10 9 7 6 7 8 9 12 15 16 18 20 19 20 22 24 28 28 24 23 24 25 23 20 19 17 15 14 14 12 11 9 9 11 7 8 13 14 16 17 16 16 11 9 11 12 13 14 16 17 17 17 18 20 19 18 18 20 22 23
16 16 16 16 16 16 14 14 13 12 10 9 9 9 8 8 9 8 8 8 7 7 9 10 11 12 11 12 12 10 9 8 7 8 9 11 14 16 19 22 21 21 24 28 30 29 25 24 24 24 24 22 20 18 15 14 15 12 11 10 8 8 8 9 13 17 21 22 19 18 15 11 11 13 13 15 17 17 18 18 20 21 21 20 18 19 22 23
17 17 17 16 16 16 15 13 13 12 10 9 8 8 8 8 9 8 8 9 9 9 10 11 12 13 11 12 12 10 11 9 7 7 8 11 14 16 19 22 23 24 27 31 32 29 26 25 24 25 25 25 23 20 17 15 14 12 10 10 8 6 6 7 9 14 21 24 23 22 22 16 13 15 14 15 18 18 17 18 20 22 23 22 20 19 21 23
17 17 17 17 17 17 15 13 13 12 11 9 8 7 8 8 8 8 9 10 10 11 12 12 13 11 11 13 12 11 13 10 6 5 4 8 13 16 18 21 24 26 30 32 31 30 27 24 25 27 28 27 25 22 20 16 13 12 10 10 11 10 9 7 5 7 12 19 23 24 24 20 18 19 17 17 20 19 17 19 22 24 25 24 21 19 20 22
17 18 18 17 17 17 16 14 13 12 11 10 8 7 7 8 9 9 10 12 12 13 13 12 12 12 11 11 11 13 13 9 6 5 4 8 12 15 16 19 23 26 30 32 30 29 27 25 27 29 28 27 25 22 21 20 15 12 12 13 13 13 13 10 7 4 8 15 21 21 22 23 23 25 21 19 20 21 21 23 26 26 26 26 24 20 20 20
17 18 18 17 16 17 16 14 13 12 11 10 9 8 7 8 10 10 10 12 14 14 13 11 11 12 11 10 10 12 11 11 11 9 9 9 11 12 12 15 20 24 28 29 28 28 26 27 30 29 25 23 23 22 22 22 20 16 14 15 15 16 15 12 10 7 7 15 19 19 24 27 28 30 25 22 23 23 22 22 24 26 25 25 24 21 19 18
17 18 17 16 15 16 15 14 13 12 11 9 8 8 8 9 9 9 9 11 14 15 13 11 10 10 10 9 9 10 10 12 13 10 10 10 9 10 11 11 14 19 26 27 25 26 25 27 29 25 21 20 20 21 21 23 23 21 17 17 18 18 15 11 10 8 7 13 15 16 24 29 30 32 28 27 27 24 20 19 18 21 24 26 25 22 20 20
18 18 17 14 13 15 14 13 13 12 11 9 7 8 7 9 9 8 8 9 12 14 12 9 8 10 10 9 10 11 11 12 11 9 11 10 9 10 10 10 10 14 22 25 23 23 25 26 25 21 18 17 17 17 18 20 23 23 21 20 22 20 14 9 7 4 6 12 14 15 20 25 29 32 31 29 27 25 22 20 20 21 21 22 22 22 21 22
18 17 17 13 12 14 13 11 12 12 10 8 6 7 5 6 9 7 6 7 9 11 10 10 10 11 11 11 11 12 10 11 10 9 10 10 9 10 10 10 10 11 17 21 20 20 23 19 17 18 16 15 15 15 16 17 19 22 23 22 25 23 15 11 8 5 12 16 18 18 19 24 29 31 33 31 28 28 27 24 26 26 24 22 22 23 23 22
17 16 16 12 10 12 12 11 11 10 9 8 5 3 2 3 5 5 6 7 8 10 10 11 12 10 11 12 13 12 10 11 10 9 10 9 8 10 11 11 12 11 12 14 13 14 15 10 10 14 14 14 15 16 17 18 18 20 23 24 25 20 13 11 10 11 17 17 16 16 15 18 27 32 33 33 32 33 31 29 31 29 27 27 27 27 25 24
18 15 15 12 9 11 11 11 10 10 8 7 4 4 4 3 4 5 7 8 9 11 11 11 10 8 9 10 13 14 11 10 11 11 10 6 5 8 10 11 12 11 9 9 9 10 11 9 8 10 9 10 11 13 16 17 18 21 22 22 20 16 12 11 12 14 14 14 13 11 13 11 19 31 34 33 35 36 34 33 34 32 30 30 29 29 28 27
18 15 14 12 9 10 10 10 10 9 7 5 5 4 3 3 5 8 9 7 8 11 11 10 9 8 8 10 14 13 9 11 13 11 8 4 3 4 10 13 12 11 9 7 9 10 11 9 9 10 10 12 12 12 11 13 20 22 18 17 16 15 14 12 14 14 13 14 14 13 18 12 14 28 35 35 36 37 37 36 36 35 33 31 30 30 30 28
18 16 14 12 10 8 9 10 9 7 5 6 5 3 1 4 7 10 7 4 5 11 11 10 9 9 9 11 14 10 9 12 12 9 6 2 2 3 7 12 14 12 9 8 11 11 9 7 7 8 10 14 15 13 8 10 19 16 8 11 14 13 14 14 15 15 13 12 13 18 22 12 9 22 31 33 36 38 38 37 38 38 35 33 32 31 31 30
18 17 15 13 10 8 8 9 8 7 5 4 3 0 4 7 8 8 5 3 6 10 10 9 9 9 9 12 13 10 11 12 9 7 6 3 4 5 4 8 13 13 10 10 12 12 10 7 4 2 3 8 12 11 7 9 14 11 5 12 15 13 15 15 15 16 13 9 13 20 24 13 7 17 26 30 37 40 38 37 37 37 35 34 33 32 32 31
18 17 16 13 10 8 7 8 7 6 4 1 2 5 7 7 6 4 3 4 6 8 8 7 7 8 9 11 12 11 12 13 9 4 6 5 5 5 3 6 10 11 10 11 13 14 10 7 3 1 4 7 11 12 10 9 12 13 13 17 17 16 17 17 18 17 10 7 11 18 27 21 7 12 25 31 36 36 34 35 37 37 36 36 35 33 33 32
19 17 16 12 9 6 6 6 5 3 0 3 7 10 10 8 6 3 3 6 6 6 7 7 6 6 7 10 13 12 11 11 7 3 6 4 4 6 5 5 7 8 9 10 13 15 10 7 5 5 8 10 11 13 13 12 13 13 12 14 15 14 13 14 16 14 6 5 10 14 26 28 14 12 22 27 27 26 26 29 32 35 37 37 36 34 33 32
18 16 14 12 8 4 4 4 4 4 5 7 10 12 11 11 11 9 5 5 4 4 6 8 8 7 8 11 13 13 12 11 7 6 7 4 3 7 7 4 6 7 7 8 10 12 10 8 7 8 10 10 10 14 15 14 15 12 9 10 10 5 3 6 7 7 5 6 8 9 16 23 20 19 20 22 25 24 23 24 25 29 34 37 37 35 33 32
16 14 13 12 9 6 6 5 6 8 8 9 10 10 12 11 10 12 8 5 5 4 5 7 9 10 12 13 13 14 13 11 7 6 6 5 6 10 9 6 6 6 5 5 5 6 8 7 9 10 9 3 3 8 11 13 14 12 8 7 8 4 3 2 3 1 3 7 10 10 8 10 14 16 15 19 24 23 21 20 19 22 27 32 35 35 34 33
15 14 13 13 10 10 11 11 11 10 9 10 11 14 17 14 8 11 13 10 9 6 4 6 9 10 12 15 13 12 10 9 5 5 6 7 9 11 9 7 7 4 4 3 2 4 7 6 6 8 5 5 5 1 5 9 11 10 8 5 6 5 2 3 4 2 3 6 11 12 6 5 8 7 10 16 17 17 18 17 17 18 21 27 33 34 35 35
15 14 14 14 14 15 14 12 11 11 12 12 15 18 19 14 10 11 14 10 9 7 5 6 8 11 12 13 12 10 9 9 5 4 7 8 9 11 8 8 7 4 3 2 4 2 3 4 4 4 5 5 6 6 1 7 9 7 7 7 5 4 3 2 3 5 3 2 6 9 5 5 7 4 8 12 12 11 13 14 15 18 19 25 32 34 34 35
13 13 15 18 19 18 15 13 11 12 13 13 16 21 21 15 12 11 11 9 8 7 5 7 9 12 11 9 11 9 8 10 7 6 10 12 12 13 11 10 9 6 5 5 5 5 1 3 3 2 1 2 6 8 4 3 7 6 6 6 6 4 4 4 3 4 2 2 3 8 5 3 5 4 6 10 10 8 10 13 16 18 18 20 25 28 32 33
14 14 16 18 20 19 18 16 13 13 9 10 14 22 20 15 14 10 7 7 6 4 5 9 9 11 11 9 12 13 11 10 8 9 12 12 11 12 11 11 10 8 7 7 7 7 4 3 2 1 2 1 5 6 3 5 5 4 3 3 6 5 3 3 1 0 2 2 2 6 5 6 6 5 10 12 10 9 9 13 17 20 22 22 20 21 24 27
16 14 15 15 16 17 18 17 15 13 7 7 16 21 16 14 12 8 6 4 2 2 7 13 13 12 13 12 11 11 11 9 6 8 10 9 8 10 9 8 9 8 8 6 5 7 7 5 4 3 2 3 4 4 4 8 9 6 4 1 5 6 3 2 2 0 2 2 2 4 8 14 19 17 17 14 11 11 11 14 17 20 26 28 26 22 20 21
14 13 13 12 13 14 15 15 14 10 5 9 18 17 13 13 10 7 6 1 2 2 7 13 13 13 14 13 10 8 8 8 7 8 11 10 8 7 6 6 6 6 7 4 3 7 9 7 3 4 3 5 5 5 7 7 7 5 4 4 5 5 2 2 2 1 0 2 2 1 5 11 20 23 23 20 15 15 15 16 17 19 25 31 32 30 25 21
11 13 12 11 12 12 12 14 13 9 8 14 17 13 10 11 8 5 5 3 2 4 8 10 11 13 14 10 9 9 9 10 8 8 11 11 8 5 3 4 5 4 6 5 4 6 8 7 6 9 9 9 10 12 13 8 6 5 3 5 8 5 4 2 4 5 4 1 2 1 3 8 18 21 20 22 19 15 16 18 19 19 23 30 33 34 32 26
8 11 12 10 8 8 9 11 12 11 13 15 14 11 10 9 5 3 3 2 2 7 9 7 8 11 11 9 7 7 10 11 8 9 12 11 8 6 3 3 4 4 5 6 6 6 7 9 12 15 14 13 12 10 8 7 8 9 10 13 15 12 7 3 2 6 8 4 2 2 3 6 17 19 17 23 24 18 15 16 19 19 21 28 31 33 34 30
4 8 10 8 7 6 7 10 12 12 14 15 13 11 9 7 6 4 4 3 5 8 8 6 7 9 9 8 6 4 6 9 9 9 11 10 8 8 6 5 5 5 6 7 8 7 9 10 12 14 14 13 8 5 8 8 7 6 8 12 13 13 13 8 3 6 11 7 5 2 4 4 14 16 17 23 25 21 16 16 18 19 21 25 29 30 32 32
2 6 7 6 7 4 3 9 12 12 14 13 10 9 8 7 6 5 4 4 5 6 6 6 7 7 7 8 5 5 4 8 10 9 10 10 9 8 6 7 8 8 7 6 6 7 9 9 11 12 10 7 5 9 12 11 8 4 5 8 9 10 12 8 3 6 9 6 8 6 3 2 9 13 16 20 22 19 15 15 19 20 22 25 28 28 28 29
2 4 4 6 7 2 2 6 8 8 10 7 6 8 8 8 7 5 4 5 4 4 5 7 7 5 6 5 5 5 5 6 8 8 7 7 7 6 3 6 10 11 11 8 8 9 7 6 9 10 6 5 6 7 8 9 6 4 4 5 6 6 7 3 3 4 3 2 10 7 4 6 9 11 13 16 17 17 15 12 16 18 19 25 27 25 24 25
1 3 4 5 4 2 4 8 6 5 6 5 6 10 9 9 9 6 4 4 4 3 4 7 7 3 4 4 4 4 5 6 7 6 5 5 4 2 2 6 8 10 11 10 10 9 5 3 5 5 4 3 1 0 2 5 5 6 7 6 5 4 5 3 2 4 3 6 13 9 7 13 11 7 11 13 13 15 16 12 9 11 12 22 28 26 24 27
2 3 3 3 3 3 6 8 4 2 4 4 6 9 8 8 8 5 3 4 4 3 1 5 4 2 3 3 4 4 4 4 6 6 3 2 1 1 4 7 7 7 8 8 8 7 5 4 5 5 5 3 1 2 4 8 10 12 11 10 8 7 5 4 4 5 6 14 16 8 9 16 11 8 13 14 12 15 15 14 12 7 2 9 22 26 26 30
3 1 2 3 4 5 5 4 3 1 0 1 4 7 6 4 5 4 2 3 3 2 1 1 2 3 1 2 4 5 4 4 4 3 2 1 2 3 5 5 5 5 6 6 6 5 3 5 5 4 3 1 1 2 4 6 9 11 13 14 12 10 9 8 6 5 8 13 12 8 11 17 13 14 19 16 13 14 13 12 15 15 14 7 11 24 27 32
1 1 2 3 6 7 6 5 5 4 3 3 0 4 4 1 1 1 2 3 1 1 2 3 1 1 2 1 3 5 5 5 5 4 4 3 2 2 2 3 3 3 5 5 5 3 3 4 3 2 2 4 5 5 6 9 10 11 12 14 15 14 12 11 11 10 9 10 12 14 16 15 13 15 19 18 17 18 13 9 11 13 16 14 4 16 24 29
5 4 4 5 7 8 8 7 7 7 5 3 0 3 1 1 2 2 1 1 0 1 3 4 3 4 5 4 2 3 4 4 4 4 5 5 5 4 2 2 2 3 5 5 5 4 4 4 3 3 3 5 7 8 10 11 13 15 14 14 15 15 13 12 12 11 11 13 16 17 19 16 12 15 19 19 19 20 17 14 15 13 9 14 11 6 16 22
7 6 5 5 6 6 6 6 6 6 5 4 3 1 3 4 3 4 3 2 1 1 2 3 4 4 5 5 4 3 2 1 3 5 6 6 6 5 3 2 3 5 6 5 5 5 4 3 2 5 4 4 6 9 10 11 13 16 17 16 15 13 13 12 10 9 10 14 16 18 21 19 14 15 19 20 21 20 20 20 20 18 13 10 14 10 9 16
9 7 6 5 6 7 7 6 5 5 5 5 4 2 2 2 3 4 4 3 1 0 1 2 4 6 5 7 7 4 3 3 4 6 7 6 6 6 5 5 6 6 4 3 3 5 5 3 4 7 7 6 7 9 10 12 14 17 17 15 12 12 12 11 11 11 11 12 13 15 18 17 15 17 20 22 23 22 22 23 24 21 17 10 10 12 8 13
10 9 8 7 7 6 6 5 4 3 3 4 4 2 1 3 5 5 4 3 2 1 2 2 5 7 6 7 7 5 4 4 5 6 7 6 7 8 6 5 7 7 5 4 4 6 6 6 8 8 7 7 9 11 12 13 14 12 9 6 8 10 11 11 11 11 12 13 14 14 14 12 12 17 19 21 24 24 22 21 21 21 18 14 11 12 9 6
Wind_Direction
320 318 314 311 310 307 306 306 308 310 312 314 316 317 316 315 314 314 311 302 287 272 261 249 244 243 244 244 240 238 234 229 223 221 218 215 210 204 199 185 192 198 197 195 194 194 194 192 192 191 186 177 170 172 161 149 125 96 87 81 80 77 71 68 77 127 160 164 170 173 173 173 174 167 167 165 157 149 142 148 160 173 176 183 197 181 167 166
318 316 313 309 305 300 297 295 294 294 295 299 302 304 306 307 309 311 314 314 305 285 270 257 246 241 240 241 240 235 230 226 222 219 213 211 212 205 194 183 186 195 198 197 194 192 194 195 193 191 186 177 175 177 166 162 141 104 91 84 81 80 72 58 58 106 161 159 159 173 175 172 179 176 171 167 161 159 153 156 165 175 178 182 191 182 172 169
315 315 312 308 303 298 293 289 286 283 283 285 289 292 296 298 301 303 307 313 311 297 284 271 252 241 238 238 238 234 228 222 219 217 210 208 211 204 193 187 182 186 193 193 190 188 191 195 192 188 186 180 177 177 168 158 136 108 97 86 79 75 67 49 49 94 146 149 150 173 178 175 181 183 180 171 164 167 166 165 171 175 177 180 186 182 175 170
315 314 312 308 303 298 292 288 284 282 280 280 282 285 288 292 295 297 299 305 307 299 292 285 262 244 238 234 233 230 225 218 216 214 210 207 206 202 191 189 186 183 188 191 187 186 189 190 186 183 187 184 176 175 166 150 130 112 100 90 82 63 54 44 46 81 138 155 175 186 185 182 183 185 187 182 175 174 175 176 183 178 174 174 179 183 177 171
314 314 312 308 304 299 295 290 286 284 282 281 280 281 284 287 289 291 294 297 300 298 292 287 271 247 237 233 229 224 222 218 214 210 209 207 204 199 190 188 190 183 186 190 189 190 191 187 182 181 185 185 176 172 166 153 138 120 109 101 91 59 37 32 43 64 113 156 179 185 183 182 183 187 188 189 187 182 177 179 192 186 180 172 174 181 177 172
313 313 311 308 304 301 298 293 290 287 286 284 282 282 282 284 286 287 289 290 293 294 288 279 271 248 232 231 225 218 218 214 208 206 207 207 204 199 192 190 189 184 186 191 193 194 192 187 184 183 183 183 175 170 169 161 149 126 110 88 59 35 5 349 24 44 52 144 170 170 174 183 190 192 190 188 187 192 191 174 177 184 185 181 179 182 178 175
311 310 308 306 303 301 299 297 295 292 290 288 286 284 282 282 283 284 284 286 287 288 283 270 263 246 227 226 221 214 216 212 204 203 206 206 204 200 193 191 190 185 186 194 198 197 194 189 186 185 182 180 173 167 168 162 159 145 105 65 25 350 325 304 260 288 27 147 172 171 175 192 198 194 190 183 182 197 200 171 160 166 175 185 188 187 183 178
307 306 305 304 301 300 298 298 298 296 295 293 290 287 283 282 281 281 281 283 285 284 278 262 252 239 223 221 215 210 213 210 201 198 204 205 202 199 195 190 189 186 183 192 201 200 197 192 187 186 181 176 169 164 168 175 188 175 99 14 352 329 307 289 242 240 226 144 154 167 176 185 186 187 186 180 185 199 198 178 162 155 169 185 192 193 189 181
306 305 304 303 301 299 297 297 297 297 297 296 294 291 286 282 279 279 278 282 284 281 272 251 238 229 220 219 211 204 203 199 195 193 197 200 199 197 194 190 187 186 182 185 197 200 198 192 187 186 179 172 169 165 171 191 207 208 285 312 327 323 301 275 225 219 216 145 149 166 180 181 178 181 184 185 191 198 194 186 173 158 169 184 192 198 195 187
310 309 307 305 302 300 298 297 295 295 295 294 293 291 287 282 277 277 279 283 281 278 267 235 224 222 218 216 207 199 195 194 196 201 201 199 198 196 193 190 187 187 185 184 189 192 189 183 183 185 180 174 170 166 178 198 205 220 255 262 283 305 292 243 211 209 201 156 156 176 191 184 186 189 187 188 193 198 195 193 188 172 172 179 189 198 199 194
314 313 310 308 304 302 299 297 295 293 291 288 286 285 283 279 276 276 280 279 276 274 255 219 213 216 212 211 205 193 190 191 193 201 207 202 194 193 193 192 190 189 187 186 180 176 175 174 179 186 183 179 176 175 185 203 211 224 242 239 259 285 268 215 208 210 202 180 162 166 182 181 190 199 192 190 193 195 196 200 196 181 177 183 185 192 199 197
315 314 311 309 305 303 301 299 297 292 287 283 279 277 275 274 274 275 276 273 269 264 238 208 204 210 204 203 203 196 192 190 183 189 202 202 193 188 188 189 191 189 186 181 168 167 175 180 188 190 185 184 186 186 190 204 215 221 240 243 249 263 250 216 213 218 209 204 189 166 183 189 185 191 187 191 197 194 195 202 197 183 180 188 185 186 195 196
317 315 312 309 305 302 301 300 299 294 286 279 275 271 268 268 269 270 270 265 259 248 221 196 190 199 192 188 195 199 198 192 184 183 190 197 195 189 185 186 189 187 180 168 163 169 177 186 194 193 190 192 191 192 197 208 215 217 230 238 245 254 244 222 218 224 214 214 217 190 197 197 183 189 186 190 196 192 194 198 196 189 186 191 187 184 189 194
319 316 313 309 305 302 301 300 299 295 287 278 272 267 265 265 262 262 262 256 251 229 199 184 185 187 171 156 163 189 195 191 187 186 185 187 193 193 189 186 186 184 173 164 165 169 174 183 192 194 195 197 196 202 205 204 210 216 223 229 235 241 240 225 224 223 214 213 218 212 212 208 206 204 192 190 194 195 196 193 193 194 192 193 190 186 187 189
322 319 315 311 307 304 303 300 299 295 288 280 271 266 265 262 256 255 252 247 239 209 186 177 178 171 154 138 135 150 161 170 177 183 183 179 185 190 189 187 183 180 171 167 167 166 173 185 193 195 197 203 205 210 211 204 207 216 219 221 226 228 228 220 223 225 218 212 208 211 217 220 234 222 196 195 197 200 205 197 194 198 198 196 193 191 189 186
323 319 315 312 309 307 305 302 299 294 288 282 274 269 264 258 252 249 247 240 227 202 180 171 166 155 146 138 132 129 126 133 149 164 171 171 177 183 187 186 179 177 172 167 166 168 178 191 196 197 198 207 212 213 216 211 208 214 216 209 208 218 222 212 216 224 228 221 211 215 217 216 233 225 202 201 202 202 207 205 201 200 202 201 196 195 193 189
322 318 314 312 310 308 307 303 298 294 289 286 280 272 260 250 246 241 238 232 219 198 176 168 160 149 146 145 137 124 113 115 130 145 159 168 175 179 185 184 175 174 172 167 169 174 185 194 198 201 202 207 212 213 221 220 213 211 214 211 196 204 217 215 214 217 222 224 226 233 234 224 230 231 214 206 205 204 205 207 207 204 204 205 201 200 199 195
321 317 313 312 310 308 307 304 299 294 290 288 283 278 264 249 242 232 226 224 210 189 177 174 164 151 149 150 142 125 110 103 104 125 155 169 174 177 182 181 173 174 173 171 175 181 189 197 200 204 207 209 211 213 219 218 212 209 212 218 211 203 209 214 222 224 222 224 230 242 246 237 223 228 229 217 210 208 206 206 211 208 206 208 206 203 202 200
320 316 312 312 310 306 307 305 300 295 291 287 279 273 266 257 245 230 222 218 201 183 178 176 170 162 158 156 146 127 116 106 92 100 153 169 169 173 177 178 174 175 177 178 181 185 191 199 204 207 210 211 213 216 218 213 209 211 212 219 219 213 209 200 208 242 243 236 236 243 253 248 226 223 231 225 215 212 211 210 213 212 208 211 211 206 203 201
320 316 314 315 311 306 306 305 300 295 290 287 281 271 263 258 245 230 220 212 201 189 184 182 180 174 166 160 144 131 125 123 129 122 133 156 162 167 173 177 175 176 181 183 185 189 195 202 208 210 210 213 216 219 222 217 213 217 217 220 227 228 222 206 193 237 270 254 249 256 263 258 239 232 233 229 222 216 212 210 211 213 211 213 214 209 205 200
321 316 316 318 313 307 308 306 300 294 289 285 284 281 270 258 244 230 217 210 204 195 188 185 182 178 171 164 151 143 137 136 139 123 122 146 160 166 168 175 179 179 183 187 188 191 199 207 211 212 213 218 219 221 226 224 222 226 227 228 236 238 232 222 215 233 266 259 261 265 260 256 245 237 234 228 228 227 221 217 214 214 213 215 217 212 205 200
323 318 317 320 315 311 313 311 303 297 294 290 289 292 278 259 244 230 214 207 205 197 189 184 186 188 180 173 164 153 145 144 140 117 118 138 154 176 180 173 181 183 182 187 192 195 205 213 213 213 217 221 222 223 227 228 228 230 234 241 245 241 239 241 233 237 256 262 272 268 256 255 245 236 234 231 236 243 241 238 233 222 215 215 217 215 207 200
326 321 319 323 319 314 318 317 307 301 301 305 314 325 303 258 240 230 206 196 200 194 191 195 195 192 185 180 167 153 150 153 148 126 121 130 143 173 180 162 169 182 182 186 191 197 209 216 214 213 220 224 224 224 225 228 231 231 236 244 243 239 247 251 222 217 266 273 286 282 265 258 244 233 232 233 240 247 244 240 239 233 225 221 219 216 211 205
329 325 321 326 323 317 323 322 311 307 310 321 335 350 337 258 241 230 184 175 191 187 192 199 185 180 181 172 154 144 149 152 147 139 131 132 137 145 150 149 154 164 175 184 189 199 212 216 211 210 217 220 221 221 219 221 225 227 230 235 235 235 251 255 228 268 290 287 286 275 260 252 243 232 226 226 229 233 232 230 230 232 233 231 227 223 218 213
334 330 323 327 326 318 324 323 315 315 317 329 336 332 324 232 231 214 155 142 167 174 178 178 169 170 166 154 142 133 139 146 140 136 133 135 147 153 157 160 162 157 164 178 188 204 209 200 195 204 210 214 219 219 213 215 224 228 225 225 229 235 254 257 251 285 293 293 285 258 240 244 240 232 224 219 220 222 223 226 229 230 231 230 229 226 222 219
339 334 324 326 326 316 323 326 322 323 322 326 313 269 256 217 187 164 136 118 138 154 156 155 155 160 154 148 145 135 136 143 137 135 130 127 156 181 182 171 166 165 165 178 198 208 191 175 193 204 208 215 227 228 216 214 229 236 226 219 227 243 256 255 262 282 285 293 299 254 227 237 231 227 222 216 217 218 219 223 229 231 231 230 229 228 225 222
342 339 327 326 326 315 322 328 325 325 316 297 267 257 259 197 155 143 130 105 125 145 145 141 141 144 138 143 150 147 144 140 138 142 134 121 143 187 196 189 180 176 173 178 196 203 189 190 217 217 221 230 234 233 218 215 234 241 231 220 229 242 248 260 271 277 279 285 288 242 220 225 225 223 219 214 215 218 220 224 227 230 232 231 231 230 229 227
344 342 331 327 327 317 320 323 321 316 297 277 271 282 97 143 148 147 135 87 125 144 139 126 120 125 126 139 150 151 152 145 141 147 143 143 162 153 187 194 193 191 194 195 189 193 196 200 213 214 230 242 237 228 218 235 243 240 226 227 235 241 251 266 271 272 284 280 255 225 217 222 239 225 215 211 215 220 226 230 228 228 231 231 231 232 231 231
345 341 335 332 328 322 319 315 316 315 301 286 282 218 120 133 141 141 124 83 124 134 132 120 105 106 121 144 149 134 135 139 130 145 172 218 190 159 159 184 198 202 208 214 199 192 197 193 174 166 236 245 234 224 226 247 241 227 226 244 244 249 254 259 262 265 275 259 230 222 216 214 246 230 215 213 219 224 231 234 232 230 230 231 232 232 232 231
345 341 338 333 326 326 319 310 319 324 310 270 158 131 122 128 138 132 90 88 117 121 117 112 105 103 115 140 146 128 124 125 108 139 191 206 193 186 164 167 193 205 208 218 214 206 206 204 185 190 239 229 216 216 224 233 232 235 250 252 251 256 255 255 258 259 259 238 238 232 217 212 231 228 218 219 223 229 234 236 237 234 232 233 232 232 231 229
347 346 344 338 331 324 312 310 326 335 335 123 126 124 111 102 98 84 97 101 105 114 101 97 117 124 127 138 137 128 127 128 120 156 169 164 197 193 177 167 177 191 199 209 220 222 222 223 208 209 235 233 215 215 223 226 229 236 244 246 250 256 252 250 249 242 227 228 251 240 216 211 216 221 220 227 234 241 247 250 250 245 239 236 234 232 231 229
351 354 355 357 353 340 334 334 5 65 105 112 119 121 105 90 71 52 81 109 79 90 94 99 117 121 136 143 135 132 131 126 134 164 161 152 163 153 144 150 155 158 171 184 207 216 217 220 196 194 226 239 227 221 221 220 225 230 229 233 238 233 218 231 229 213 203 215 221 213 204 206 220 232 230 235 245 254 262 268 270 264 254 245 239 235 231 229
359 2 6 15 22 35 43 55 75 87 108 111 114 120 104 91 63 42 56 83 63 71 105 115 114 115 132 135 131 139 133 115 130 160 159 155 136 123 118 124 138 134 136 153 172 171 171 171 164 178 204 234 247 225 215 209 211 217 222 224 217 179 126 215 238 197 209 203 181 173 179 196 220 240 242 240 248 259 268 276 281 276 264 253 246 240 235 231
4 9 21 33 47 64 77 89 89 91 102 102 115 122 101 80 54 48 59 73 79 84 129 134 120 122 132 130 132 149 136 109 128 163 161 160 132 112 113 117 117 115 124 124 75 116 150 145 140 160 148 68 42 70 203 205 199 204 216 217 214 205 171 204 214 177 177 187 175 174 182 180 192 234 260 257 263 269 270 277 282 277 268 258 251 245 239 234
13 26 47 64 72 76 79 80 82 90 94 113 134 120 91 60 41 51 50 61 84 86 114 142 133 125 124 128 137 158 154 128 139 184 166 151 117 95 92 92 90 99 128 94 32 56 165 143 113 123 102 53 29 34 350 207 187 191 202 198 200 208 222 237 212 196 173 115 163 173 175 171 176 210 258 260 268 270 266 273 276 275 270 258 251 246 242 237
34 53 77 84 76 70 70 71 85 99 104 142 137 94 72 54 48 54 46 51 72 74 119 153 140 124 114 121 128 136 155 143 142 153 124 108 98 87 80 74 67 71 84 69 45 40 124 158 128 112 100 25 32 29 4 184 175 196 200 195 196 197 234 260 243 220 201 66 155 178 187 215 201 216 265 263 254 248 258 266 268 271 271 262 252 247 243 240
63 79 91 86 73 69 77 82 92 99 111 159 117 77 67 63 56 55 55 58 54 46 153 141 112 104 104 116 120 124 144 139 129 137 117 97 86 77 73 70 60 58 61 51 35 20 349 284 280 220 184 348 37 49 52 79 108 178 186 213 209 187 203 220 207 179 135 128 200 178 144 45 24 331 308 292 262 241 243 253 260 263 261 258 253 246 241 240
77 89 95 85 72 76 86 86 83 81 88 131 99 80 74 70 60 54 65 84 71 69 132 115 92 90 104 113 111 121 150 148 126 132 120 105 87 70 67 64 54 51 53 47 21 2 347 325 297 243 212 333 21 87 97 66 64 84 95 159 185 161 154 164 150 61 120 145 241 180 113 56 30 8 353 340 308 280 255 241 248 255 254 253 252 249 245 240
81 92 96 86 80 85 88 81 74 67 65 93 90 84 77 70 60 47 47 48 214 124 110 103 97 97 102 108 103 106 136 135 126 128 114 105 95 81 73 62 54 46 41 40 13 354 346 345 312 252 288 328 343 27 44 53 68 90 124 149 136 131 135 69 62 352 1 165 207 196 104 58 29 18 15 10 345 308 281 255 244 247 249 249 250 251 250 243
89 93 91 88 86 85 82 75 65 50 61 82 87 90 83 71 59 32 14 328 228 127 108 107 112 104 97 104 107 101 100 100 115 125 109 103 103 102 101 75 61 38 25 15 0 346 332 332 312 285 299 329 350 15 27 31 46 57 93 95 71 81 145 111 56 42 31 142 165 68 111 60 28 22 24 18 2 328 294 272 255 248 246 245 245 246 248 245
103 93 87 87 84 80 81 77 65 59 73 82 83 81 75 73 81 55 21 14 122 109 105 116 126 115 112 118 108 94 89 86 94 106 102 101 99 88 66 41 30 10 2 343 330 329 322 321 315 311 324 347 2 28 51 56 63 61 63 66 55 55 77 81 53 46 29 10 13 27 155 67 26 24 33 23 5 343 313 284 265 256 248 242 240 242 244 242
109 86 80 77 76 83 85 77 75 79 82 78 71 70 78 102 127 113 83 114 123 106 106 114 115 119 128 126 116 117 100 79 75 93 99 95 90 79 50 16 3 353 348 340 334 333 328 317 312 328 351 359 3 80 120 120 108 91 77 75 69 60 51 36 0 359 358 355 4 342 187 88 30 28 37 26 8 350 327 292 274 266 253 240 234 238 243 241
64 73 75 70 72 79 56 65 80 86 83 79 73 75 91 116 130 130 136 159 142 118 123 115 105 117 125 121 139 173 141 87 78 93 103 95 88 80 43 355 346 343 341 348 343 329 324 316 313 332 8 43 104 136 146 155 150 132 101 85 76 59 39 32 47 358 347 358 17 8 195 147 31 29 31 24 13 1 337 298 281 270 249 233 229 232 239 240
30 65 77 77 76 64 352 69 100 104 93 92 81 81 94 105 108 115 144 164 141 117 126 108 100 124 132 136 171 177 163 129 105 102 105 98 90 82 35 343 343 338 332 338 336 325 323 324 325 337 23 85 117 131 152 168 150 83 54 46 48 46 33 70 122 17 357 8 3 358 242 283 347 11 16 18 20 17 7 331 297 279 248 227 225 226 231 239
69 50 65 70 58 17 57 84 116 131 107 88 64 77 88 91 89 83 97 130 110 91 117 103 87 114 150 168 196 174 165 158 140 128 109 96 96 97 324 328 339 335 331 336 336 337 349 3 357 16 76 106 149 74 283 271 291 317 320 329 341 355 15 42 16 355 8 328 327 325 297 304 314 340 359 10 21 22 24 18 334 298 254 225 221 220 223 233
135 49 43 31 14 34 83 94 97 96 99 71 62 83 87 83 90 89 91 108 80 35 104 108 101 153 166 175 204 188 166 153 150 150 136 84 51 353 325 329 332 327 332 337 335 346 20 41 35 54 92 120 202 284 310 305 307 303 294 295 299 306 325 339 333 341 341 323 314 314 333 324 311 326 345 354 7 10 18 36 43 33 5 220 216 215 217 225
186 60 7 346 32 62 88 107 91 46 205 12 66 100 98 85 101 99 82 86 54 354 326 102 169 211 198 184 202 198 182 172 177 191 218 309 346 343 327 321 318 324 333 329 324 339 41 64 51 42 55 54 284 313 316 307 308 301 289 285 286 284 282 284 290 304 325 323 306 290 322 325 317 328 338 337 342 351 4 34 49 51 53 63 209 212 216 223
141 104 42 21 52 59 57 60 39 354 320 311 2 124 113 94 135 76 67 92 79 344 356 3 348 342 0 323 201 200 197 192 199 219 237 258 261 254 285 289 290 329 337 325 321 343 44 56 35 357 320 301 297 299 296 292 288 281 278 280 280 280 282 284 283 283 296 308 300 297 305 310 310 320 327 326 324 330 339 358 9 22 51 65 149 213 217 224
73 76 56 31 33 42 43 35 8 352 357 3 295 167 169 298 284 279 273 155 149 16 9 359 8 16 7 16 85 153 182 194 209 232 245 256 259 252 243 256 282 335 346 345 351 0 33 45 10 316 294 298 298 292 291 294 289 280 272 268 270 276 283 290 295 295 291 286 289 292 287 283 295 309 311 311 313 319 321 317 319 330 20 57 68 167 204 216
70 68 52 25 8 7 8 350 333 334 345 358 356 254 267 301 287 253 240 232 214 56 11 346 350 337 340 9 43 88 101 173 244 258 265 264 264 265 269 294 317 337 349 0 5 350 2 34 344 318 313 296 293 293 293 294 291 287 281 270 266 270 275 280 284 283 278 276 278 279 276 276 283 291 294 297 299 303 307 305 303 305 315 12 50 78 154 188
71 68 57 31 358 342 336 328 326 331 331 339 346 311 276 286 244 221 219 229 244 135 217 305 314 295 312 359 11 18 16 325 286 270 266 265 265 266 275 294 303 311 323 344 344 334 340 347 324 329 329 306 294 293 292 291 288 288 289 282 268 261 263 265 261 257 261 272 275 276 282 287 282 274 280 287 288 291 298 301 301 299 295 315 18 38 85 154
69 72 68 51 26 16 24 34 29 9 5 9 4 354 185 185 195 201 206 221 254 250 217 260 291 279 291 334 351 6 12 335 302 275 267 277 282 274 272 279 284 289 296 304 311 312 311 310 314 324 323 309 303 299 300 303 299 294 295 278 244 240 246 249 248 246 249 260 270 274 278 286 280 272 275 280 283 288 295 299 303 301 290 285 312 346 16 97
Height
3142 3140 3139 3138 3137 3137 3136 3135 3134 3134 3133 3132 3132 3131 3130 3130 3129 3129 3130 3130 3130 3130 3129 3130 3130 3130 3130 3130 3131 3131 3132 3132 3133 3133 3134 3135 3136 3136 3137 3138 3139 3139 3141 3142 3143 3145 3146 3148 3150 3151 3153 3154 3155 3155 3156 3157 3158 3158 3157 3157 3158 3158 3158 3159 3159 3159 3159 3159 3160 3161 3161 3163 3163 3163 3164 3166 3166 3167 3167 3168 3170 3171 3173 3176 3178 3178 3178 3178
3140 3139 3138 3137 3137 3136 3135 3134 3133 3133 3132 3131 3131 3130 3129 3129 3128 3128 3128 3128 3129 3128 3128 3128 3129 3129 3129 3129 3129 3130 3131 3131 3131 3132 3133 3134 3135 3136 3137 3138 3138 3139 3140 3142 3144 3145 3146 3148 3149 3151 3153 3153 3154 3155 3156 3157 3158 3158 3157 3158 3158 3158 3158 3159 3160 3159 3159 3160 3161 3162 3163 3163 3164 3165 3165 3165 3166 3167 3167 3168 3170 3171 3172 3174 3176 3177 3178 3179
3139 3138 3137 3136 3135 3135 3134 3133 3132 3132 3131 3130 3130 3129 3128 3128 3127 3127 3127 3127 3127 3127 3127 3127 3127 3127 3128 3128 3128 3129 3129 3130 3130 3131 3132 3133 3134 3135 3136 3137 3137 3138 3140 3141 3143 3144 3145 3147 3149 3151 3152 3153 3154 3155 3156 3157 3157 3157 3157 3158 3158 3159 3159 3159 3160 3160 3160 3161 3162 3162 3163 3163 3164 3165 3165 3166 3166 3167 3167 3168 3169 3170 3171 3173 3175 3176 3178 3179
3138 3137 3135 3134 3134 3133 3133 3132 3131 3131 3130 3129 3129 3128 3127 3126 3126 3126 3125 3126 3126 3125 3126 3126 3126 3126 3126 3126 3127 3127 3128 3129 3129 3130 3131 3132 3133 3134 3135 3136 3137 3137 3139 3140 3141 3142 3142 3144 3147 3149 3151 3152 3153 3154 3155 3156 3157 3156 3157 3157 3158 3159 3159 3160 3160 3161 3161 3161 3162 3162 3163 3163 3164 3165 3166 3166 3166 3167 3168 3169 3171 3171 3171 3172 3174 3176 3178 3180
3136 3135 3134 3133 3132 3131 3131 3130 3130 3129 3129 3128 3127 3127 3126 3125 3124 3124 3124 3124 3124 3124 3124 3124 3125 3125 3125 3125 3126 3126 3127 3128 3128 3129 3130 3131 3132 3133 3134 3135 3136 3136 3138 3139 3140 3140 3141 3143 3146 3147 3149 3150 3152 3153 3155 3156 3156 3156 3156 3157 3158 3158 3159 3161 3161 3162 3162 3162 3162 3162 3163 3163 3164 3165 3166 3166 3167 3168 3169 3170 3172 3172 3172 3173 3174 3176 3178 3180
3135 3134 3133 3132 3131 3130 3129 3129 3128 3128 3127 3126 3126 3125 3124 3124 3123 3122 3123 3123 3123 3122 3122 3123 3123 3123 3123 3124 3124 3125 3126 3126 3127 3128 3129 3129 3130 3132 3133 3134 3135 3136 3137 3138 3139 3140 3141 3143 3145 3146 3148 3149 3151 3153 3154 3155 3156 3156 3156 3157 3158 3159 3159 3161 3162 3163 3162 3162 3162 3163 3163 3164 3164 3165 3166 3167 3168 3169 3170 3170 3172 3172 3173 3175 3176 3177 3179 3181
3134 3132 3131 3130 3129 3128 3127 3127 3126 3126 3125 3125 3124 3123 3123 3122 3121 3121 3121 3121 3121 3121 3121 3121 3122 3122 3122 3122 3123 3124 3124 3125 3126 3127 3128 3129 3129 3131 3132 3133 3134 3135 3136 3137 3138 3140 3141 3143 3144 3146 3148 3149 3151 3154 3154 3154 3155 3155 3156 3157 3159 3159 3160 3161 3162 3163 3163 3163 3163 3163 3163 3164 3164 3165 3166 3167 3168 3169 3170 3171 3172 3172 3173 3175 3177 3178 3180 3182
3132 3131 3130 3129 3128 3127 3126 3125 3125 3124 3124 3123 3122 3122 3121 3121 3120 3119 3120 3119 3119 3119 3119 3120 3120 3121 3121 3121 3122 3123 3124 3124 3125 3126 3127 3128 3129 3129 3131 3132 3133 3135 3136 3137 3138 3140 3141 3143 3144 3146 3148 3149 3151 3153 3154 3155 3155 3155 3156 3157 3158 3159 3160 3161 3162 3163 3163 3163 3163 3163 3164 3164 3165 3165 3166 3167 3167 3168 3170 3171 3172 3171 3173 3175 3177 3179 3181 3182
3131 3130 3129 3127 3126 3125 3124 3124 3123 3123 3122 3121 3121 3120 3119 3119 3118 3118 3118 3118 3118 3118 3118 3118 3119 3119 3119 3119 3120 3122 3123 3124 3125 3125 3126 3127 3128 3129 3130 3131 3133 3134 3135 3136 3138 3139 3141 3143 3145 3147 3149 3150 3151 3152 3153 3154 3154 3155 3155 3156 3157 3158 3159 3160 3162 3163 3163 3163 3163 3163 3164 3165 3165 3165 3167 3167 3167 3168 3169 3171 3172 3171 3173 3175 3177 3179 3181 3182
3130 3129 3127 3126 3125 3124 3123 3122 3121 3121 3120 3120 3119 3118 3118 3118 3117 3117 3117 3117 3116 3116 3117 3117 3117 3118 3118 3118 3119 3121 3122 3123 3124 3125 3125 3126 3127 3128 3129 3131 3132 3133 3134 3136 3137 3139 3141 3144 3145 3147 3149 3150 3150 3151 3152 3152 3153 3154 3155 3155 3156 3157 3158 3159 3161 3162 3163 3164 3164 3164 3164 3164 3165 3165 3166 3167 3167 3168 3169 3170 3171 3172 3173 3175 3177 3179 3181 3183
3129 3127 3126 3125 3123 3122 3121 3120 3120 3119 3118 3118 3117 3117 3116 3116 3116 3116 3116 3116 3115 3115 3115 3116 3116 3116 3117 3117 3118 3119 3120 3121 3122 3123 3124 3125 3126 3127 3128 3130 3131 3133 3134 3135 3137 3139 3141 3143 3144 3146 3147 3149 3149 3150 3150 3151 3152 3153 3154 3155 3155 3156 3157 3158 3160 3161 3162 3163 3164 3164 3164 3165 3165 3165 3166 3167 3167 3168 3169 3169 3171 3172 3173 3175 3176 3178 3180 3182
3127 3126 3125 3123 3122 3121 3120 3119 3118 3118 3117 3116 3116 3115 3114 3115 3115 3115 3115 3115 3114 3114 3114 3115 3115 3116 3116 3116 3117 3118 3119 3120 3121 3122 3122 3124 3126 3127 3128 3129 3130 3132 3134 3136 3138 3139 3141 3142 3143 3145 3146 3147 3148 3149 3150 3151 3151 3152 3153 3154 3155 3155 3156 3157 3159 3160 3162 3163 3163 3164 3164 3164 3164 3165 3166 3167 3168 3168 3169 3170 3171 3173 3173 3175 3176 3178 3179 3181
3126 3125 3123 3122 3121 3120 3119 3118 3117 3116 3116 3115 3114 3113 3113 3113 3114 3114 3114 3114 3113 3114 3114 3114 3114 3115 3115 3115 3116 3117 3118 3119 3120 3121 3122 3123 3124 3126 3127 3128 3130 3131 3134 3136 3137 3139 3140 3141 3142 3144 3145 3145 3146 3148 3149 3150 3150 3151 3153 3153 3154 3155 3155 3157 3158 3159 3161 3162 3163 3164 3164 3164 3164 3164 3165 3166 3167 3168 3168 3169 3171 3172 3173 3174 3175 3177 3178 3180
3125 3123 3122 3121 3119 3118 3117 3116 3116 3115 3114 3113 3113 3112 3111 3112 3112 3112 3112 3112 3113 3113 3113 3113 3114 3114 3114 3115 3116 3116 3117 3118 3119 3120 3121 3122 3123 3125 3126 3127 3129 3131 3133 3134 3136 3137 3139 3140 3141 3142 3143 3144 3146 3147 3147 3149 3150 3151 3152 3153 3154 3154 3155 3156 3156 3158 3160 3161 3163 3163 3163 3163 3163 3163 3164 3165 3166 3167 3168 3168 3169 3171 3172 3173 3174 3176 3178 3179
3123 3122 3121 3119 3118 3117 3116 3115 3114 3114 3113 3112 3111 3110 3110 3111 3111 3111 3111 3111 3112 3112 3112 3113 3113 3114 3114 3115 3116 3116 3116 3117 3118 3119 3120 3121 3122 3124 3125 3127 3128 3130 3132 3133 3134 3136 3138 3139 3140 3141 3142 3144 3145 3145 3147 3148 3149 3150 3152 3152 3153 3154 3155 3155 3155 3157 3158 3160 3162 3162 3163 3163 3163 3163 3163 3164 3165 3166 3167 3167 3168 3169 3171 3172 3174 3175 3177 3179
3122 3121 3119 3118 3116 3115 3114 3113 3113 3112 3111 3111 3110 3109 3110 3109 3109 3109 3110 3110 3111 3111 3111 3112 3113 3113 3114 3115 3115 3116 3117 3117 3117 3118 3118 3119 3121 3122 3124 3125 3127 3129 3131 3132 3134 3136 3137 3138 3139 3140 3142 3143 3144 3145 3146 3147 3149 3150 3151 3152 3153 3154 3154 3154 3155 3157 3158 3160 3161 3161 3162 3162 3162 3162 3163 3164 3164 3165 3166 3167 3168 3169 3170 3171 3173 3174 3176 3178
3121 3119 3118 3116 3115 3113 3113 3112 3111 3111 3110 3110 3109 3108 3108 3108 3108 3108 3109 3109 3110 3111 3111 3111 3112 3113 3114 3114 3115 3116 3116 3116 3117 3117 3118 3119 3120 3121 3123 3124 3126 3128 3130 3131 3133 3134 3136 3137 3138 3139 3141 3142 3143 3144 3145 3146 3147 3149 3150 3151 3153 3154 3154 3155 3156 3157 3158 3160 3160 3160 3161 3162 3162 3162 3162 3163 3164 3164 3165 3166 3167 3168 3169 3170 3172 3173 3174 3176
3120 3118 3116 3115 3114 3112 3111 3110 3110 3109 3109 3108 3108 3107 3107 3106 3106 3107 3107 3108 3109 3110 3110 3111 3111 3112 3113 3114 3114 3115 3115 3116 3116 3117 3117 3118 3119 3121 3122 3124 3125 3127 3129 3130 3132 3133 3134 3136 3138 3139 3139 3140 3142 3143 3144 3145 3147 3149 3150 3151 3152 3153 3154 3156 3156 3157 3158 3159 3160 3160 3159 3161 3162 3161 3161 3162 3163 3163 3164 3165 3166 3167 3168 3169 3171 3172 3173 3175
3118 3117 3115 3114 3112 3111 3110 3109 3108 3108 3107 3107 3106 3106 3105 3105 3105 3105 3106 3106 3108 3109 3110 3110 3111 3112 3113 3113 3114 3114 3114 3115 3116 3117 3117 3118 3119 3120 3122 3123 3124 3126 3128 3129 3130 3132 3133 3135 3136 3137 3137 3139 3141 3142 3143 3145 3147 3148 3149 3150 3151 3152 3154 3155 3156 3157 3158 3158 3158 3158 3157 3159 3161 3160 3160 3161 3162 3163 3164 3165 3166 3166 3167 3168 3170 3171 3173 3174
3117 3115 3114 3112 3111 3109 3108 3107 3107 3106 3106 3105 3105 3104 3104 3104 3104 3104 3104 3105 3106 3108 3109 3110 3111 3111 3112 3113 3113 3113 3113 3115 3117 3117 3117 3118 3119 3120 3122 3123 3124 3126 3127 3129 3130 3132 3133 3134 3134 3134 3136 3139 3141 3142 3143 3145 3146 3147 3148 3149 3149 3150 3151 3154 3156 3157 3158 3157 3156 3156 3156 3158 3159 3158 3159 3161 3161 3162 3163 3163 3164 3165 3166 3167 3168 3170 3172 3174
3115 3114 3112 3111 3109 3107 3107 3106 3105 3104 3104 3104 3104 3103 3103 3103 3103 3103 3103 3104 3105 3106 3108 3109 3110 3111 3112 3113 3113 3114 3114 3115 3116 3117 3117 3118 3119 3120 3121 3122 3124 3125 3127 3129 3130 3132 3132 3132 3132 3134 3137 3140 3141 3142 3143 3144 3145 3146 3147 3148 3148 3149 3150 3153 3154 3155 3157 3156 3155 3156 3155 3155 3157 3158 3159 3160 3159 3159 3160 3161 3162 3163 3165 3166 3167 3169 3171 3174
3114 3112 3111 3109 3108 3106 3105 3104 3104 3103 3103 3103 3103 3102 3102 3101 3101 3102 3102 3102 3103 3105 3107 3109 3110 3111 3112 3112 3113 3113 3114 3115 3116 3117 3117 3118 3119 3120 3121 3122 3123 3125 3126 3128 3130 3131 3131 3130 3132 3136 3138 3139 3140 3141 3142 3143 3144 3145 3146 3147 3147 3148 3150 3152 3153 3155 3155 3154 3154 3155 3154 3154 3156 3157 3159 3158 3157 3158 3159 3159 3161 3162 3164 3165 3166 3168 3170 3172
3112 3111 3109 3108 3106 3105 3104 3103 3102 3101 3101 3102 3102 3101 3100 3100 3100 3100 3101 3101 3102 3104 3106 3108 3109 3110 3111 3112 3113 3113 3114 3115 3117 3117 3118 3119 3119 3120 3121 3122 3123 3125 3126 3127 3128 3129 3129 3130 3133 3137 3138 3138 3139 3140 3141 3142 3143 3144 3145 3145 3144 3146 3150 3152 3152 3154 3154 3153 3153 3154 3153 3153 3155 3156 3157 3157 3158 3159 3159 3159 3161 3162 3163 3164 3166 3167 3169 3171
3111 3109 3108 3107 3105 3104 3103 3102 3101 3100 3100 3100 3100 3100 3099 3099 3099 3100 3100 3101 3102 3104 3105 3107 3108 3109 3110 3111 3112 3113 3114 3115 3117 3117 3118 3119 3120 3121 3122 3123 3124 3125 3126 3127 3128 3129 3129 3131 3134 3136 3137 3137 3138 3139 3140 3141 3141 3142 3143 3143 3143 3145 3149 3151 3152 3153 3152 3152 3151 3152 3152 3150 3151 3152 3153 3156 3158 3158 3158 3159 3160 3161 3163 3165 3166 3167 3168 3170
3109 3107 3106 3105 3104 3103 3102 3101 3100 3099 3099 3099 3099 3098 3098 3098 3099 3099 3100 3101 3102 3103 3105 3106 3107 3109 3110 3110 3111 3113 3114 3115 3116 3117 3118 3119 3121 3121 3122 3123 3124 3125 3126 3128 3129 3130 3131 3133 3134 3135 3136 3136 3137 3138 3139 3140 3140 3141 3141 3142 3143 3145 3148 3150 3151 3152 3151 3150 3149 3150 3151 3147 3147 3149 3151 3154 3156 3156 3157 3158 3158 3159 3162 3163 3164 3165 3167 3169
3108 3106 3105 3104 3103 3102 3101 3100 3099 3098 3098 3098 3098 3097 3097 3098 3099 3099 3100 3101 3102 3104 3105 3106 3108 3109 3109 3110 3111 3113 3114 3116 3116 3117 3119 3120 3121 3122 3122 3123 3124 3125 3127 3128 3129 3130 3131 3132 3133 3134 3135 3136 3136 3137 3138 3139 3140 3139 3138 3141 3143 3145 3148 3148 3150 3151 3151 3149 3147 3148 3148 3146 3145 3146 3149 3152 3153 3154 3156 3157 3157 3158 3159 3160 3161 3163 3165 3166
3106 3105 3103 3103 3102 3101 3100 3099 3098 3098 3097 3096 3096 3096 3097 3098 3098 3099 3100 3101 3103 3104 3105 3107 3108 3108 3109 3110 3112 3113 3114 3115 3117 3118 3119 3120 3121 3121 3122 3123 3124 3125 3126 3127 3128 3128 3129 3131 3132 3132 3133 3134 3135 3135 3136 3139 3139 3137 3137 3141 3143 3145 3147 3147 3148 3150 3150 3149 3147 3146 3147 3147 3145 3144 3147 3151 3152 3154 3154 3154 3154 3155 3156 3158 3159 3161 3163 3165
3105 3104 3103 3102 3101 3100 3099 3098 3097 3097 3096 3096 3096 3096 3097 3097 3098 3099 3100 3102 3104 3104 3106 3107 3108 3108 3109 3110 3112 3113 3114 3115 3117 3118 3119 3120 3120 3121 3121 3122 3123 3125 3125 3126 3127 3128 3129 3130 3131 3131 3132 3132 3133 3134 3135 3138 3137 3136 3137 3140 3142 3144 3145 3146 3147 3148 3148 3148 3146 3145 3146 3147 3145 3144 3148 3151 3152 3151 3150 3150 3151 3152 3153 3155 3157 3159 3161 3163
3104 3103 3102 3100 3100 3099 3098 3097 3096 3096 3095 3095 3095 3096 3097 3097 3099 3099 3100 3103 3105 3105 3106 3107 3108 3109 3110 3111 3112 3113 3114 3116 3117 3118 3119 3119 3119 3120 3120 3121 3122 3123 3124 3125 3126 3127 3128 3129 3130 3131 3131 3132 3132 3133 3134 3135 3135 3135 3136 3139 3141 3143 3144 3144 3145 3146 3147 3147 3145 3144 3145 3146 3144 3144 3148 3150 3149 3146 3145 3146 3148 3150 3152 3153 3155 3157 3159 3161
3103 3102 3100 3099 3099 3098 3097 3096 3096 3095 3095 3095 3096 3096 3097 3098 3099 3099 3101 3104 3105 3106 3107 3107 3108 3109 3110 3111 3112 3113 3115 3116 3117 3117 3117 3118 3118 3119 3119 3120 3121 3122 3123 3124 3125 3126 3127 3129 3130 3130 3130 3130 3131 3131 3132 3133 3133 3134 3135 3136 3138 3140 3142 3143 3143 3144 3145 3144 3143 3142 3143 3144 3144 3143 3145 3145 3142 3142 3143 3145 3147 3149 3150 3151 3153 3155 3157 3159
3102 3101 3099 3098 3097 3097 3096 3095 3095 3095 3095 3095 3096 3097 3098 3099 3099 3100 3103 3105 3106 3107 3108 3108 3109 3109 3110 3111 3112 3114 3115 3115 3116 3116 3116 3117 3117 3118 3119 3119 3120 3121 3122 3123 3124 3125 3127 3128 3129 3129 3128 3129 3129 3130 3130 3131 3132 3132 3133 3134 3136 3138 3139 3140 3141 3142 3143 3142 3141 3140 3141 3143 3143 3141 3141 3141 3140 3141 3144 3144 3145 3146 3148 3149 3151 3153 3155 3157
3101 3100 3099 3097 3096 3096 3095 3095 3095 3095 3096 3096 3097 3098 3098 3099 3100 3102 3104 3105 3106 3107 3107 3108 3109 3109 3110 3111 3112 3114 3114 3114 3115 3116 3116 3116 3116 3117 3118 3118 3119 3120 3121 3122 3123 3125 3126 3127 3127 3127 3127 3128 3128 3128 3129 3130 3130 3131 3131 3133 3135 3136 3137 3138 3138 3139 3140 3140 3139 3139 3140 3142 3142 3140 3141 3140 3140 3142 3143 3144 3144 3144 3146 3148 3150 3152 3154 3156
3101 3100 3099 3098 3097 3096 3096 3096 3096 3096 3096 3097 3097 3098 3098 3099 3102 3105 3106 3106 3107 3107 3107 3108 3109 3109 3110 3111 3112 3113 3114 3114 3115 3115 3115 3116 3116 3116 3117 3118 3119 3119 3120 3121 3122 3123 3125 3126 3126 3126 3127 3127 3127 3127 3127 3128 3129 3130 3130 3131 3133 3134 3136 3138 3138 3138 3138 3137 3138 3139 3139 3141 3140 3140 3141 3140 3140 3142 3143 3143 3143 3143 3144 3146 3148 3151 3153 3154
3101 3100 3099 3098 3098 3097 3097 3097 3097 3097 3097 3097 3098 3098 3098 3100 3105 3107 3106 3106 3107 3107 3107 3108 3109 3110 3110 3111 3112 3113 3113 3114 3115 3115 3115 3116 3116 3117 3118 3118 3119 3120 3120 3120 3121 3122 3123 3124 3125 3125 3126 3127 3127 3126 3126 3126 3127 3128 3128 3129 3130 3131 3134 3135 3135 3135 3135 3135 3136 3138 3139 3138 3139 3140 3141 3140 3141 3142 3142 3142 3142 3141 3142 3144 3146 3149 3151 3152
3102 3101 3100 3100 3100 3100 3099 3099 3098 3098 3098 3099 3099 3098 3100 3104 3107 3107 3106 3107 3107 3108 3108 3108 3109 3109 3110 3111 3111 3112 3112 3113 3115 3115 3115 3116 3117 3117 3118 3119 3119 3120 3120 3120 3121 3122 3123 3124 3125 3125 3126 3127 3126 3125 3125 3125 3126 3126 3126 3127 3128 3129 3130 3131 3132 3132 3133 3134 3136 3137 3137 3137 3138 3139 3138 3137 3137 3139 3140 3141 3141 3140 3140 3142 3144 3146 3148 3149
3104 3103 3102 3102 3102 3102 3101 3101 3101 3100 3101 3100 3099 3100 3104 3108 3108 3108 3108 3108 3108 3108 3108 3108 3109 3110 3110 3111 3112 3112 3112 3113 3114 3114 3115 3117 3117 3118 3119 3119 3120 3120 3120 3120 3121 3122 3122 3123 3124 3125 3126 3126 3126 3125 3124 3124 3124 3125 3125 3125 3127 3128 3128 3129 3130 3131 3132 3134 3135 3136 3136 3136 3136 3135 3133 3132 3132 3134 3135 3136 3137 3138 3139 3140 3140 3142 3144 3146
3106 3105 3105 3104 3104 3104 3103 3103 3103 3103 3103 3102 3102 3104 3108 3110 3110 3109 3110 3109 3109 3109 3108 3108 3110 3111 3111 3112 3113 3113 3113 3113 3114 3114 3116 3118 3119 3120 3120 3120 3121 3121 3121 3121 3122 3122 3122 3122 3123 3125 3125 3126 3126 3125 3124 3123 3123 3124 3124 3125 3126 3127 3128 3128 3129 3129 3132 3134 3134 3134 3135 3136 3135 3134 3132 3130 3131 3131 3131 3132 3133 3135 3136 3137 3138 3139 3141 3142
3108 3107 3106 3106 3105 3106 3106 3105 3105 3105 3104 3104 3105 3108 3110 3110 3111 3111 3110 3110 3110 3110 3109 3109 3111 3112 3112 3112 3113 3113 3113 3113 3114 3115 3116 3118 3120 3121 3121 3121 3122 3122 3122 3122 3122 3122 3122 3122 3122 3123 3124 3125 3125 3125 3124 3123 3123 3124 3124 3124 3125 3125 3126 3127 3128 3129 3131 3133 3133 3132 3133 3135 3136 3135 3133 3130 3129 3128 3128 3129 3129 3130 3132 3134 3136 3137 3139 3140
3110 3109 3108 3108 3107 3107 3107 3107 3107 3107 3106 3106 3108 3110 3111 3112 3112 3111 3111 3111 3111 3110 3111 3111 3112 3113 3113 3112 3113 3113 3113 3114 3115 3116 3117 3119 3121 3122 3121 3121 3122 3122 3122 3122 3122 3122 3122 3122 3122 3122 3123 3124 3124 3124 3125 3125 3125 3124 3123 3123 3124 3125 3126 3127 3128 3129 3129 3131 3132 3130 3132 3137 3138 3137 3135 3132 3129 3126 3125 3126 3127 3128 3129 3129 3131 3134 3137 3139
3111 3110 3109 3109 3109 3109 3108 3108 3108 3108 3107 3108 3110 3111 3112 3113 3113 3112 3112 3112 3111 3111 3112 3113 3114 3114 3114 3114 3114 3114 3114 3115 3116 3116 3117 3120 3121 3122 3122 3122 3122 3122 3122 3122 3123 3122 3122 3122 3122 3121 3122 3123 3124 3125 3126 3126 3126 3125 3124 3124 3125 3125 3126 3127 3129 3129 3129 3130 3131 3131 3134 3138 3138 3136 3135 3133 3130 3127 3125 3124 3125 3126 3127 3127 3128 3130 3133 3137
3112 3111 3111 3111 3111 3110 3109 3109 3109 3109 3109 3110 3112 3112 3113 3114 3114 3113 3113 3112 3112 3112 3113 3114 3114 3115 3115 3115 3115 3115 3115 3116 3117 3117 3118 3120 3121 3122 3122 3122 3123 3123 3123 3123 3123 3123 3122 3122 3122 3121 3122 3124 3125 3127 3127 3127 3127 3126 3125 3126 3128 3127 3127 3128 3129 3130 3130 3131 3132 3132 3134 3136 3136 3135 3134 3132 3130 3128 3125 3124 3123 3124 3125 3125 3126 3127 3129 3133
3114 3113 3113 3113 3112 3112 3111 3110 3110 3110 3110 3112 3113 3113 3114 3114 3114 3114 3114 3114 3113 3113 3114 3115 3115 3116 3116 3116 3116 3116 3116 3117 3118 3118 3120 3121 3122 3122 3122 3122 3123 3123 3123 3123 3123 3123 3123 3122 3122 3123 3124 3125 3126 3127 3127 3128 3127 3127 3127 3129 3130 3129 3129 3131 3131 3131 3131 3131 3132 3133 3133 3133 3133 3133 3132 3131 3130 3128 3125 3124 3123 3122 3123 3123 3124 3126 3127 3130
3115 3114 3115 3115 3114 3113 3112 3112 3112 3112 3112 3113 3114 3115 3114 3114 3114 3114 3114 3115 3114 3114 3114 3115 3116 3117 3117 3117 3117 3117 3116 3118 3119 3119 3120 3122 3122 3122 3123 3122 3122 3123 3123 3124 3123 3123 3123 3122 3122 3124 3126 3126 3126 3126 3126 3127 3127 3127 3128 3129 3130 3130 3131 3132 3132 3132 3132 3132 3132 3133 3132 3129 3129 3129 3129 3129 3129 3127 3125 3123 3122 3121 3121 3122 3123 3124 3126 3129
3116 3116 3116 3115 3115 3114 3114 3114 3114 3113 3114 3115 3115 3115 3115 3115 3114 3114 3114 3115 3115 3115 3115 3115 3116 3117 3118 3118 3118 3118 3117 3118 3120 3120 3121 3122 3122 3122 3122 3122 3122 3122 3122 3123 3123 3123 3123 3123 3122 3123 3126 3127 3127 3127 3127 3126 3126 3127 3129 3129 3130 3131 3131 3132 3132 3132 3132 3132 3133 3134 3131 3127 3126 3127 3127 3126 3126 3125 3123 3121 3119 3117 3117 3118 3120 3121 3122 3126
3117 3116 3116 3116 3116 3115 3114 3115 3115 3115 3115 3116 3116 3116 3116 3115 3116 3116 3115 3115 3116 3116 3116 3116 3117 3118 3118 3118 3118 3118 3118 3118 3119 3120 3121 3121 3122 3122 3122 3122 3122 3121 3121 3122 3122 3122 3123 3123 3123 3123 3126 3128 3129 3129 3129 3127 3126 3127 3128 3129 3129 3130 3130 3131 3131 3132 3132 3131 3132 3132 3131 3127 3125 3125 3125 3123 3122 3121 3120 3119 3117 3115 3114 3114 3116 3118 3119 3120
3117 3117 3117 3117 3117 3116 3116 3116 3116 3116 3116 3116 3116 3117 3117 3117 3117 3117 3116 3116 3116 3116 3117 3117 3118 3118 3118 3118 3118 3118 3118 3119 3119 3120 3121 3121 3121 3121 3121 3121 3122 3121 3121 3121 3121 3121 3122 3123 3123 3124 3125 3127 3128 3129 3129 3128 3127 3127 3127 3128 3129 3129 3130 3131 3131 3132 3132 3131 3130 3130 3130 3128 3125 3124 3123 3120 3119 3119 3118 3117 3116 3114 3113 3113 3113 3114 3116 3117
3117 3117 3117 3117 3117 3118 3117 3117 3117 3117 3117 3117 3117 3117 3118 3118 3118 3118 3117 3117 3117 3117 3117 3117 3118 3118 3118 3118 3118 3118 3119 3119 3120 3120 3120 3120 3120 3121 3121 3121 3121 3121 3121 3121 3121 3121 3121 3122 3123 3124 3125 3126 3127 3128 3128 3128 3128 3127 3127 3127 3128 3129 3130 3130 3131 3132 3132 3131 3129 3128 3129 3128 3127 3125 3123 3121 3119 3119 3118 3118 3117 3115 3114 3114 3113 3112 3114 3116
3117 3118 3118 3118 3118 3118 3118 3117 3117 3117 3117 3117 3117 3118 3118 3118 3118 3118 3118 3117 3117 3117 3117 3117 3117 3117 3117 3117 3118 3118 3118 3119 3119 3120 3120 3120 3120 3121 3121 3121 3120 3120 3120 3120 3120 3120 3121 3122 3123 3124 3125 3125 3126 3126 3127 3127 3127 3127 3127 3127 3127 3128 3129 3129 3130 3131 3131 3131 3129 3127 3126 3127 3127 3126 3125 3123 3121 3120 3120 3119 3119 3118 3116 3115 3114 3112 3112 3114
3118 3118 3118 3118 3118 3118 3118 3118 3118 3118 3117 3117 3118 3118 3118 3118 3118 3117 3117 3118 3118 3117 3117 3117 3117 3117 3117 3117 3117 3117 3118 3118 3119 3119 3119 3119 3119 3120 3120 3119 3119 3119 3119 3119 3120 3120 3121 3122 3123 3123 3124 3124 3125 3125 3125 3125 3125 3125 3125 3126 3126 3127 3128 3128 3128 3129 3129 3129 3128 3126 3125 3125 3127 3127 3126 3124 3122 3121 3121 3120 3120 3120 3118 3116 3115 3113 3112 3113
3118 3118 3118 3118 3119 3119 3119 3119 3118 3118 3118 3117 3118 3118 3118 3117 3117 3117 3117 3117 3118 3117 3117 3117 3117 3116 3117 3117 3117 3117 3117 3117 3117 3117 3118 3118 3118 3118 3118 3118 3118 3119 3119 3119 3119 3119 3120 3122 3122 3122 3123 3124 3123 3123 3124 3124 3123 3122 3122 3124 3125 3126 3126 3127 3127 3127 3127 3127 3126 3125 3123 3124 3126 3127 3125 3123 3122 3121 3121 3120 3119 3120 3119 3117 3115 3113 3112 3113
3119 3119 3119 3119 3119 3119 3119 3119 3119 3118 3118 3117 3117 3117 3117 3117 3117 3117 3117 3117 3118 3118 3117 3117 3117 3116 3117 3117 3117 3117 3117 3117 3117 3116 3117 3117 3117 3117 3117 3117 3118 3118 3118 3118 3119 3119 3120 3121 3121 3122 3123 3123 3122 3122 3122 3122 3121 3121 3120 3121 3123 3124 3124 3124 3124 3125 3125 3125 3125 3124 3123 3123 3124 3125 3123 3122 3120 3120 3120 3120 3119 3119 3120 3118 3115 3114 3113 3112
3120 3120 3120 3119 3119 3119 3119 3119 3119 3119 3118 3118 3117 3117 3117 3117 3117 3117 3117 3117 3117 3117 3117 3117 3116 3116 3116 3117 3117 3116 3116 3116 3116 3116 3116 3117 3117 3116 3116 3116 3117 3117 3117 3117 3118 3118 3119 3120 3120 3121 3122 3122 3122 3121 3121 3120 3120 3119 3119 3119 3120 3121 3122 3122 3122 3123 3123 3123 3123 3123 3122 3122 3123 3123 3122 3120 3118 3118 3119 3119 3119 3119 3119 3118 3116 3116 3115 3113